Location: *
(51.5000°N, 0.1100°W)
Time: 06:18:31
(UTC+00:00)

Cosmos 1455 - Pass Details

Date: 11 August 2024
Orbit: 432 x 446 km, 82.5° (Epoch: 07 September)

Event Time Altitude Azimuth Distance (km) Brightness Sun altitude
Rises 03:27:12 0° 171° (S) 2,460 5.3 -10.3°
Reaches altitude 10° 03:29:20 10° 163° (SSE) 1,587 4.4 -10.0°
Maximum altitude 03:32:34 38° 94° (E) 702 3.3 -9.7°
Drops below altitude 10° 03:35:49 10° 25° (NNE) 1,586 5.8 -9.3°
Sets 03:37:57 0° 17° (NNE) 2,458 6.7 -9.0°
